Starlink 11421

operational
NORAD ID: 61945 Int'l Des: 2024-209 Owner: SPXS Country: US Constellation: starlink
LEOCIRCULAR

Über Starlink 11421

Beschreibung wird geladen...

Live-Position

3D-Globus wird geladen...

Nächste Überflüge

Höhenverlauf

Altitude vs Time

uPlot chart will show altitude changes over time

Zweizeiliger Elementsatz

1 61945U 24209G 26094.84550798 .00125580 00000-0 10252-2 0 9992
2 61945 53.1565 242.4908 0000909 97.7938 262.3183 15.69724172 80784
Epoch: 4. Apr. 2026 • Age: 17 hours

Aktueller Status

Höhe 368.0 km
Geschwindigkeit 7.69 km/s
Subsatellitenpunkt -28.01°S, 172.35°W
Startdatum 14. Nov. 2024
Alter 1.3 years
Typ internet

Technische Details

Klassifizierung Payload
Masse 960.00 kg
Trockenmasse 910.00 kg
Gesamtmasse 960.00 kg
Länge 0.30 m
Durchmesser 4.10 m
Spannweite 29.00 m
Form Box + pan
Hersteller SPXS
Bus-Typ Starlink V2MD
Phasenstatus In Orbit
Besitzer/Staat SPXS/US

Große Konstellationen

Loading constellations...